Time,TemperatureF,DewpointF,PressureIn,WindDirection,WindDirectionDegrees,WindSpeedMPH,WindSpeedGustMPH,Humidity,HourlyPrecipIn,Conditions,Clouds,dailyrainin,SoftwareType,DateUTC
2013-06-17 13:44:00,82.0,50.1,29.77,WSW,240,10.0,10.0,33,0.00,,,0.00,Weather View 32 v70,2013-06-17 17:44:00,
2013-06-17 13:45:00,82.4,50.6,29.77,SW,218,9.0,11.0,33,0.00,,,0.00,Weather View 32 v70,2013-06-17 17:45:00,
2013-06-17 13:50:00,84.0,51.4,29.77,SW,233,8.0,13.0,33,0.00,,,0.00,Weather View 32 v70,2013-06-17 17:50:00,
2013-06-17 13:55:00,81.8,49.8,29.74,SW,224,9.0,15.0,33,0.00,,,0.00,Weather View 32 v70,2013-06-17 17:55:00,
2013-06-17 14:00:00,81.8,49.8,29.77,SW,218,9.0,15.0,33,0.00,,,0.00,Weather View 32 v70,2013-06-17 18:00:00,
2013-06-17 14:05:00,81.7,50.2,29.77,SW,230,10.0,15.0,34,0.00,,,0.00,Weather View 32 v70,2013-06-17 18:05:00,
2013-06-17 14:10:00,81.8,50.9,29.71,SSW,211,8.0,15.0,34,0.00,,,0.00,Weather View 32 v70,2013-06-17 18:10:00,
2013-06-17 14:15:00,82.7,51.7,29.71,SW,215,6.0,15.0,34,0.00,,,0.00,Weather View 32 v70,2013-06-17 18:15:00,
2013-06-17 14:20:00,84.7,50.9,29.77,SW,235,3.0,15.0,31,0.00,,,0.00,Weather View 32 v70,2013-06-17 18:20:00,
2013-06-17 14:25:00,83.1,51.2,29.74,SW,220,9.0,15.0,33,0.00,,,0.00,Weather View 32 v70,2013-06-17 18:25:00,
2013-06-17 14:30:00,83.5,48.8,29.71,West,260,3.0,15.0,30,0.00,,,0.00,Weather View 32 v70,2013-06-17 18:30:00,
2013-06-17 14:35:00,82.7,48.0,29.74,SSW,207,3.0,15.0,30,0.00,,,0.00,Weather View 32 v70,2013-06-17 18:35:00,
2013-06-17 14:40:00,81.1,47.7,29.74,SW,221,8.0,15.0,31,0.00,,,0.00,Weather View 32 v70,2013-06-17 18:40:00,
2013-06-17 14:45:00,81.5,47.4,29.71,WSW,239,5.0,15.0,31,0.00,,,0.00,Weather View 32 v70,2013-06-17 18:45:00,
2013-06-17 14:50:00,80.4,47.2,29.71,WSW,240,5.0,15.0,31,0.00,,,0.00,Weather View 32 v70,2013-06-17 18:50:00,
2013-06-17 14:55:00,80.6,47.5,29.71,WSW,239,4.0,15.0,32,0.00,,,0.00,Weather View 32 v70,2013-06-17 18:55:00,
2013-06-17 15:00:00,79.9,47.7,29.74,SW,219,8.0,15.0,33,0.00,,,0.00,Weather View 32 v70,2013-06-17 19:00:00,
2013-06-17 15:05:00,81.1,49.9,29.71,SW,235,5.0,12.0,34,0.00,,,0.00,Weather View 32 v70,2013-06-17 19:05:00,
2013-06-17 15:10:00,80.9,50.9,29.71,SSW,200,7.0,12.0,35,0.00,,,0.00,Weather View 32 v70,2013-06-17 19:10:00,
2013-06-17 15:15:00,81.5,51.4,29.71,SSW,210,4.0,12.0,35,0.00,,,0.00,Weather View 32 v70,2013-06-17 19:15:00,
2013-06-17 15:20:00,82.0,50.3,29.71,SW,219,7.0,12.0,33,0.00,,,0.00,Weather View 32 v70,2013-06-17 19:20:00,
2013-06-17 15:25:00,82.4,51.6,29.71,SW,230,5.0,12.0,35,0.00,,,0.00,Weather View 32 v70,2013-06-17 19:25:00,
2013-06-17 15:30:00,80.8,49.7,29.74,SW,233,9.0,12.0,34,0.00,,,0.00,Weather View 32 v70,2013-06-17 19:30:00,
2013-06-17 15:35:00,82.0,50.0,29.71,South,175,1.0,12.0,33,0.00,,,0.00,Weather View 32 v70,2013-06-17 19:35:00,
2013-06-17 15:40:00,80.9,48.5,29.71,WSW,238,7.0,15.0,32,0.00,,,0.00,Weather View 32 v70,2013-06-17 19:40:00,
2013-06-17 15:45:00,81.8,49.7,29.71,SW,222,7.0,15.0,33,0.00,,,0.00,Weather View 32 v70,2013-06-17 19:45:00,
2013-06-17 15:50:00,82.2,49.8,29.71,SSE,168,2.0,15.0,33,0.00,,,0.00,Weather View 32 v70,2013-06-17 19:50:00,
2013-06-17 15:55:00,80.8,48.1,29.74,SW,232,8.0,15.0,32,0.00,,,0.00,Weather View 32 v70,2013-06-17 19:55:00,
2013-06-17 16:00:00,80.8,48.9,29.68,SW,221,8.0,15.0,33,0.00,,,0.00,Weather View 32 v70,2013-06-17 20:00:00,
2013-06-17 16:05:00,81.5,47.8,29.71,SW,236,7.0,15.0,31,0.00,,,0.00,Weather View 32 v70,2013-06-17 20:05:00,
2013-06-17 16:10:00,81.1,48.9,29.71,West,261,5.0,15.0,33,0.00,,,0.00,Weather View 32 v70,2013-06-17 20:10:00,
2013-06-17 16:15:00,81.1,48.6,29.71,SW,225,10.0,15.0,32,0.00,,,0.00,Weather View 32 v70,2013-06-17 20:15:00,
2013-06-17 16:20:00,80.9,48.0,29.74,WSW,237,8.0,15.0,32,0.00,,,0.00,Weather View 32 v70,2013-06-17 20:20:00,
2013-06-17 16:25:00,81.5,49.7,29.74,SW,219,7.0,15.0,33,0.00,,,0.00,Weather View 32 v70,2013-06-17 20:25:00,
2013-06-17 16:30:00,80.2,47.3,29.74,SW,222,11.0,15.0,32,0.00,,,0.00,Weather View 32 v70,2013-06-17 20:30:00,
2013-06-17 16:35:00,81.5,47.7,29.71,WSW,253,5.0,15.0,31,0.00,,,0.00,Weather View 32 v70,2013-06-17 20:35:00,
2013-06-17 16:40:00,81.1,48.2,29.71,SW,218,8.0,15.0,32,0.00,,,0.00,Weather View 32 v70,2013-06-17 20:40:00,
2013-06-17 16:45:00,80.0,47.0,29.71,SW,220,8.0,15.0,32,0.00,,,0.00,Weather View 32 v70,2013-06-17 20:45:00,
2013-06-17 16:50:00,80.9,47.8,29.71,SW,227,9.0,15.0,32,0.00,,,0.00,Weather View 32 v70,2013-06-17 20:50:00,
2013-06-17 16:55:00,81.5,47.9,29.71,WSW,237,8.0,15.0,31,0.00,,,0.00,Weather View 32 v70,2013-06-17 20:55:00,
2013-06-17 17:00:00,81.3,48.6,29.71,SSW,198,7.0,15.0,32,0.00,,,0.00,Weather View 32 v70,2013-06-17 21:00:00,
2013-06-17 17:05:00,81.3,50.3,29.71,SW,225,7.0,15.0,34,0.00,,,0.00,Weather View 32 v70,2013-06-17 21:05:00,
2013-06-17 17:10:00,81.7,51.0,29.68,WSW,253,3.0,15.0,35,0.00,,,0.00,Weather View 32 v70,2013-06-17 21:10:00,
2013-06-17 17:15:00,79.7,51.4,29.71,SW,221,10.0,15.0,38,0.00,,,0.00,Weather View 32 v70,2013-06-17 21:15:00,
2013-06-17 17:20:00,79.0,50.9,29.74,SW,220,9.0,15.0,38,0.00,,,0.00,Weather View 32 v70,2013-06-17 21:20:00,
2013-06-17 17:25:00,81.1,53.1,29.77,WSW,244,3.0,15.0,38,0.00,,,0.00,Weather View 32 v70,2013-06-17 21:25:00,
2013-06-17 17:30:00,80.8,52.5,29.71,SSW,208,3.0,15.0,38,0.00,,,0.00,Weather View 32 v70,2013-06-17 21:30:00,
2013-06-17 17:35:00,80.4,50.1,29.77,WSW,258,3.0,15.0,35,0.00,,,0.00,Weather View 32 v70,2013-06-17 21:35:00,
2013-06-17 17:40:00,80.2,46.7,29.71,SW,229,9.0,15.0,31,0.00,,,0.00,Weather View 32 v70,2013-06-17 21:40:00,
2013-06-17 17:45:00,79.7,46.2,29.71,SW,233,6.0,15.0,31,0.00,,,0.00,Weather View 32 v70,2013-06-17 21:45:00,
2013-06-17 17:50:00,80.2,47.4,29.74,WSW,253,1.0,15.0,32,0.00,,,0.00,Weather View 32 v70,2013-06-17 21:50:00,
2013-06-17 17:55:00,79.1,45.2,29.74,SW,234,10.0,15.0,30,0.00,,,0.00,Weather View 32 v70,2013-06-17 21:55:00,
2013-06-17 18:00:00,80.4,46.5,29.74,SW,228,5.0,15.0,31,0.00,,,0.00,Weather View 32 v70,2013-06-17 22:00:00,
2013-06-17 18:05:00,79.5,46.6,29.74,WSW,240,6.0,15.0,32,0.00,,,0.00,Weather View 32 v70,2013-06-17 22:05:00,
2013-06-17 18:10:00,80.6,47.4,29.74,West,260,2.0,15.0,31,0.00,,,0.00,Weather View 32 v70,2013-06-17 22:10:00,
2013-06-17 18:15:00,79.7,47.9,29.74,West,261,4.0,15.0,33,0.00,,,0.00,Weather View 32 v70,2013-06-17 22:15:00,
2013-06-17 18:20:00,79.3,47.1,29.71,West,261,2.0,15.0,32,0.00,,,0.00,Weather View 32 v70,2013-06-17 22:20:00,
2013-06-17 18:25:00,78.8,48.3,29.74,SW,229,0.0,15.0,34,0.00,,,0.00,Weather View 32 v70,2013-06-17 22:25:00,
2013-06-17 18:30:00,78.8,48.7,29.74,NNW,344,0.0,15.0,35,0.00,,,0.00,Weather View 32 v70,2013-06-17 22:30:00,
2013-06-17 18:35:00,77.2,46.3,29.80,NNW,345,2.0,15.0,34,0.00,,,0.00,Weather View 32 v70,2013-06-17 22:35:00,
2013-06-17 18:40:00,73.0,43.5,29.83,NE,41,3.0,15.0,35,0.00,,,0.00,Weather View 32 v70,2013-06-17 22:40:00,
2013-06-17 18:45:00,69.4,43.7,29.80,NNW,337,13.0,15.0,40,0.00,,,0.00,Weather View 32 v70,2013-06-17 22:45:00,
2013-06-17 18:50:00,69.4,45.2,29.83,SW,226,3.0,15.0,42,0.00,,,0.00,Weather View 32 v70,2013-06-17 22:50:00,
2013-06-17 18:55:00,69.2,46.7,29.83,NE,40,5.0,15.0,45,0.00,,,0.00,Weather View 32 v70,2013-06-17 22:55:00,
2013-06-17 19:00:00,65.3,46.1,29.80,NNE,27,3.0,15.0,50,0.00,,,0.00,Weather View 32 v70,2013-06-17 23:00:00,
2013-06-17 19:05:00,65.1,48.3,29.80,ENE,75,2.0,15.0,55,0.00,,,0.00,Weather View 32 v70,2013-06-17 23:05:00,
2013-06-17 19:10:00,65.3,51.0,29.77,East,86,6.0,15.0,60,0.00,,,0.00,Weather View 32 v70,2013-06-17 23:10:00,
2013-06-17 19:15:00,65.5,50.7,29.80,ENE,78,4.0,15.0,59,0.00,,,0.00,Weather View 32 v70,2013-06-17 23:15:00,
2013-06-17 19:20:00,65.5,50.0,29.80,East,82,3.0,15.0,57,0.00,,,0.00,Weather View 32 v70,2013-06-17 23:20:00,
2013-06-17 19:25:00,65.5,50.7,29.80,ESE,109,7.0,15.0,59,0.00,,,0.00,Weather View 32 v70,2013-06-17 23:25:00,
2013-06-17 19:30:00,65.3,50.8,29.77,NE,55,1.0,15.0,60,0.00,,,0.00,Weather View 32 v70,2013-06-17 23:30:00,
2013-06-17 19:35:00,65.6,51.2,29.80,ENE,70,2.0,15.0,60,0.00,,,0.00,Weather View 32 v70,2013-06-17 23:35:00,
2013-06-17 19:40:00,65.5,50.6,29.80,NE,36,2.0,15.0,59,0.00,,,0.00,Weather View 32 v70,2013-06-17 23:40:00,
2013-06-17 19:45:00,65.1,50.5,29.80,ESE,119,0.0,15.0,59,0.00,,,0.00,Weather View 32 v70,2013-06-17 23:45:00,
2013-06-17 19:50:00,64.9,50.3,29.77,East,94,1.0,8.0,59,0.00,,,0.00,Weather View 32 v70,2013-06-17 23:50:00,
2013-06-17 19:55:00,64.2,50.1,29.77,SSE,162,0.0,8.0,60,0.00,,,0.00,Weather View 32 v70,2013-06-17 23:55:00,
2013-06-17 20:00:00,64.9,51.0,29.80,ENE,72,1.0,8.0,61,0.00,,,0.00,Weather View 32 v70,2013-06-18 00:00:00,
2013-06-17 20:05:00,64.2,50.9,29.80,SW,228,2.0,8.0,62,0.00,,,0.00,Weather View 32 v70,2013-06-18 00:05:00,
2013-06-17 20:10:00,64.7,51.4,29.77,South,176,2.0,8.0,62,0.00,,,0.00,Weather View 32 v70,2013-06-18 00:10:00,
2013-06-17 20:15:00,64.4,51.6,29.83,SSW,194,2.0,8.0,63,0.00,,,0.00,Weather View 32 v70,2013-06-18 00:15:00,
2013-06-17 20:20:00,64.7,52.3,29.83,South,181,1.0,8.0,64,0.00,,,0.00,Weather View 32 v70,2013-06-18 00:20:00,
2013-06-17 20:25:00,64.0,51.3,29.80,SSW,205,3.0,8.0,63,0.00,,,0.00,Weather View 32 v70,2013-06-18 00:25:00,
2013-06-17 20:30:00,64.2,51.0,29.83,SSW,203,2.0,5.0,62,0.00,,,0.00,Weather View 32 v70,2013-06-18 00:30:00,
2013-06-17 20:35:00,64.4,51.3,29.83,SSE,162,0.0,5.0,63,0.00,,,0.00,Weather View 32 v70,2013-06-18 00:35:00,
2013-06-17 20:40:00,64.2,51.0,29.77,South,171,1.0,5.0,62,0.00,,,0.00,Weather View 32 v70,2013-06-18 00:40:00,
2013-06-17 20:45:00,65.1,51.7,29.80,ESE,110,1.0,5.0,62,0.00,,,0.00,Weather View 32 v70,2013-06-18 00:45:00,
2013-06-17 20:50:00,65.6,51.6,29.77,ENE,72,2.0,5.0,61,0.00,,,0.00,Weather View 32 v70,2013-06-18 00:50:00,
2013-06-17 20:55:00,65.5,50.9,29.77,ENE,72,1.0,5.0,59,0.00,,,0.00,Weather View 32 v70,2013-06-18 00:55:00,
2013-06-17 21:00:00,65.5,50.5,29.80,East,87,1.0,5.0,59,0.00,,,0.00,Weather View 32 v70,2013-06-18 01:00:00,
2013-06-17 21:05:00,65.5,50.3,29.83,East,79,1.0,5.0,58,0.00,,,0.00,Weather View 32 v70,2013-06-18 01:05:00,
2013-06-17 21:10:00,65.3,50.0,29.80,East,83,1.0,5.0,58,0.00,,,0.00,Weather View 32 v70,2013-06-18 01:10:00,
2013-06-17 21:15:00,65.1,49.9,29.80,ENE,62,1.0,5.0,58,0.00,,,0.00,Weather View 32 v70,2013-06-18 01:15:00,
2013-06-17 21:20:00,64.9,49.7,29.80,ENE,75,1.0,5.0,58,0.00,,,0.00,Weather View 32 v70,2013-06-18 01:20:00,
2013-06-17 21:25:00,64.9,49.7,29.83,ENE,58,1.0,5.0,58,0.00,,,0.00,Weather View 32 v70,2013-06-18 01:25:00,
2013-06-17 21:30:00,65.1,49.8,29.80,East,84,1.0,5.0,58,0.00,,,0.00,Weather View 32 v70,2013-06-18 01:30:00,
2013-06-17 21:35:00,65.1,49.8,29.83,ENE,57,1.0,5.0,58,0.00,,,0.00,Weather View 32 v70,2013-06-18 01:35:00,
2013-06-17 21:40:00,64.9,49.7,29.83,NE,47,2.0,5.0,58,0.00,,,0.00,Weather View 32 v70,2013-06-18 01:40:00,
2013-06-17 21:45:00,64.2,48.9,29.83,SSE,162,1.0,3.0,58,0.00,,,0.00,Weather View 32 v70,2013-06-18 01:45:00,
2013-06-17 21:50:00,64.0,49.9,29.83,ESE,105,1.0,3.0,60,0.00,,,0.00,Weather View 32 v70,2013-06-18 01:50:00,
2013-06-17 21:55:00,64.6,50.0,29.83,East,97,1.0,3.0,59,0.00,,,0.00,Weather View 32 v70,2013-06-18 01:55:00,
2013-06-17 22:00:00,64.7,49.8,29.80,ESE,110,1.0,3.0,59,0.00,,,0.00,Weather View 32 v70,2013-06-18 02:00:00,
2013-06-17 22:05:00,64.7,49.5,29.83,NE,55,1.0,3.0,58,0.00,,,0.00,Weather View 32 v70,2013-06-18 02:05:00,
2013-06-17 22:10:00,64.7,49.4,29.83,NE,49,2.0,3.0,58,0.00,,,0.00,Weather View 32 v70,2013-06-18 02:10:00,
2013-06-17 22:15:00,64.6,49.1,29.83,ESE,115,2.0,3.0,57,0.00,,,0.00,Weather View 32 v70,2013-06-18 02:15:00,
2013-06-17 22:20:00,63.3,47.9,29.83,South,176,2.0,3.0,57,0.00,,,0.00,Weather View 32 v70,2013-06-18 02:20:00,
2013-06-17 22:25:00,62.8,50.0,29.86,South,182,2.0,4.0,63,0.00,,,0.00,Weather View 32 v70,2013-06-18 02:25:00,
2013-06-17 22:30:00,63.5,51.6,29.80,ENE,62,2.0,5.0,65,0.00,,,0.00,Weather View 32 v70,2013-06-18 02:30:00,
2013-06-17 22:35:00,63.5,50.6,29.83,ESE,104,1.0,5.0,63,0.00,,,0.00,Weather View 32 v70,2013-06-18 02:35:00,
2013-06-17 22:40:00,63.5,50.7,29.80,ESE,112,1.0,5.0,63,0.00,,,0.00,Weather View 32 v70,2013-06-18 02:40:00,
2013-06-17 22:45:00,63.1,50.3,29.83,SE,129,0.0,5.0,63,0.00,,,0.00,Weather View 32 v70,2013-06-18 02:45:00,
2013-06-17 22:50:00,63.3,49.6,29.83,NE,46,1.0,5.0,61,0.00,,,0.00,Weather View 32 v70,2013-06-18 02:50:00,
2013-06-17 22:55:00,63.5,49.7,29.83,ESE,122,3.0,5.0,61,0.00,,,0.00,Weather View 32 v70,2013-06-18 02:55:00,
2013-06-17 23:00:00,63.7,50.1,29.83,East,95,2.0,5.0,61,0.00,,,0.00,Weather View 32 v70,2013-06-18 03:00:00,
2013-06-17 23:05:00,62.8,48.4,29.80,SSW,196,2.0,5.0,59,0.00,,,0.00,Weather View 32 v70,2013-06-18 03:05:00,
2013-06-17 23:10:00,62.0,49.8,29.83,SE,139,1.0,5.0,64,0.00,,,0.00,Weather View 32 v70,2013-06-18 03:10:00,
2013-06-17 23:15:00,61.9,49.8,29.83,SW,227,2.0,5.0,65,0.00,,,0.00,Weather View 32 v70,2013-06-18 03:15:00,
2013-06-17 23:20:00,62.9,50.6,29.83,NNE,21,1.0,5.0,64,0.00,,,0.00,Weather View 32 v70,2013-06-18 03:20:00,
2013-06-17 23:25:00,62.8,49.6,29.80,ENE,64,0.0,5.0,62,0.00,,,0.00,Weather View 32 v70,2013-06-18 03:25:00,
2013-06-17 23:30:00,63.1,49.5,29.80,East,88,1.0,4.0,61,0.00,,,0.00,Weather View 32 v70,2013-06-18 03:30:00,
2013-06-17 23:35:00,62.6,48.7,29.83,SE,134,2.0,4.0,61,0.00,,,0.00,Weather View 32 v70,2013-06-18 03:35:00,
2013-06-17 23:40:00,62.8,48.7,29.83,North,9,1.0,4.0,60,0.00,,,0.00,Weather View 32 v70,2013-06-18 03:40:00,
2013-06-17 23:45:00,62.6,48.3,29.83,NE,42,1.0,4.0,60,0.00,,,0.00,Weather View 32 v70,2013-06-18 03:45:00,
2013-06-17 23:50:00,62.8,48.5,29.83,ENE,64,1.0,4.0,60,0.00,,,0.00,Weather View 32 v70,2013-06-18 03:50:00,
2013-06-17 23:55:00,62.8,48.3,29.83,ENE,60,1.0,4.0,59,0.00,,,0.00,Weather View 32 v70,2013-06-18 03:55:00,